Regional Weather Roundup
Issued by NWS

Home | Current Version | Previous Version | Graphics & Text | Print | Product List | Glossary On
Versions: 1 2 3 4 5 6 7 8 9 10 11 12 13 14 15 16 17 18 19 20 21 22 23 24 25 26 27 28 29 30 31 32 33 34 35 36 37 38 39 40 41 42 43 44 45 46 47 48 49 50
000
ASUS43 KMKX 032011
RWRWI

WISCONSIN REGIONAL WEATHER ROUNDUP
NATIONAL WEATHER SERVICE MILWAUKEE/SULLIVAN WI
300 PM CDT TUE MAY 03 2016

NOTE: "FAIR" INDICATES FEW OR NO CLOUDS BELOW 12,000 FEET WITH NO
SIGNIFICANT WEATHER AND/OR OBSTRUCTIONS TO VISIBILITY.

WIZ001-002-006>008-014>016-023>028-032100-
NORTHWEST WISCONSIN

CITY           SKY/WX    TMP DP  RH WIND       PRES   REMARKS
SUPERIOR ARPT  MOSUNNY   68  28  23 N14G24    29.66S
ASHLAND        PTSUNNY   59  45  59 CALM      29.69F
HAYWARD        CLOUDY    62  36  37 VRB7G18   29.68S
SIREN          CLOUDY    68  36  31 W17G26    29.69F
CUMBERLAND     CLOUDY    63  34  34 W23       29.70F
RICE LAKE      CLOUDY    65  33  30 W14G20    29.71F
CHETEK         CLOUDY    64  37  37 W12G24    29.71F
LADYSMITH      DRIZZLE   62  37  39 W12G21    29.72F
EAU CLAIRE     PTSUNNY   67  35  30 W20G29    29.72F
MENOMONIE      PTSUNNY   70  37  29 SW16G23   29.73F
NEW RICHMOND   CLOUDY    66  35  31 W15       29.73F
OSCEOLA        CLOUDY    68  39  35 W20       29.74F
$$

WIZ003>005-009-010-017-018-032100-
NORTH CENTRAL WISCONSIN

CITY           SKY/WX    TMP DP  RH WIND       PRES   REMARKS
MANITOWISH WTR RAIN      50  44  79 W17G25    29.70S
ARBOR VITAE    LGT RAIN  52  45  77 NW3       29.71R
WOODRUFF       LGT RAIN  52  45  77 NW3       29.71R
RHINELANDER    LGT RAIN  58  37  45 W23G29    29.71R
EAGLE RIVER    LGT RAIN  50  41  71 W6        29.71R
LAND O LAKES   LGT RAIN  49  45  84 W6        29.71F
PHILLIPS       CLOUDY    58  36  43 W7        29.69S
TOMAHAWK       DRIZZLE   59  35  39 W16G23    29.70S
MEDFORD        CLOUDY    62  34  35 W21G28    29.70F
MERRILL        CLOUDY    64  34  32 W20G28    29.69F
$$

WIZ029-030-035-036-043>047-032100-
CENTRAL WISCONSIN

CITY           SKY/WX    TMP DP  RH WIND       PRES   REMARKS
WAUSAU         CLOUDY    68  33  27 SW16G30   29.67F
MOSINEE        MOSUNNY   66  30  26 W22G31    29.72F
MARSHFIELD     PTSUNNY   68  32  26 W21G26    29.71F
STEVENS POINT  CLOUDY    65  31  28 SW16G24   29.71F
WAUPACA        MOSUNNY   70  28  20 W9        29.72F
WAUTOMA        CLOUDY    69  32  25 SW15G28   29.74F
WISC RAPIDS    CLOUDY    69  28  21 W16G26    29.73F
CAMP DOUGLAS   PTSUNNY   66  39  37 W20       29.75F
$$

WIZ011>013-019>022-031-037>040-048>050-032100-
NORTHEAST WISCONSIN

CITY           SKY/WX    TMP DP  RH WIND       PRES   REMARKS
ANTIGO         CLOUDY    61  36  39 W13G20    29.69F
SHAWANO        CLOUDY    70  31  24 W12G23    29.69F
OCONTO         CLOUDY    67  33  28 W13G21    29.68S
STURGEON BAY   CLOUDY    66  34  30 SW16      29.70F
GREEN BAY      CLOUDY    69  36  29 W13G25    29.70F
MANITOWOC      CLOUDY    68  32  26 MISG      29.72F
APPLETON       PTSUNNY   68  28  22 W14G25    29.71F
CLINTONVILLE   CLOUDY    68  30  24 W16       29.69F
OSHKOSH        CLOUDY    67  33  28 W8G21     29.73F
$$

WIZ032>034-041-042-053>061-032100-
SOUTHWEST WISCONSIN

CITY           SKY/WX    TMP DP  RH WIND       PRES   REMARKS
LA CROSSE      CLOUDY    70  36  28 W22       29.77F
SPARTA         CLOUDY    67  35  30 W15G21    29.77F
VIROQUA        CLOUDY    67  35  31 W18G24    29.81F
BOSCOBEL       LGT RAIN  68  37  32 W12G22    29.82F
PRAIRIE DU CHI CLOUDY    68  34  28 W15G25    29.82F
PLATTEVILLE    MOSUNNY   66  38  35 W21       29.84F
$$

WIZ056-057-062-063-064-067-068-032100-
SOUTH CENTRAL WISCONSIN

CITY           SKY/WX    TMP DP  RH WIND       PRES   REMARKS
REEDSBURG      CLOUDY    65  38  36 W14G21    29.78F
BARABOO/DELLS  CLOUDY    66  32  28 W15       29.78F
LONE ROCK      CLOUDY    67  37  33 W16G26    29.80F
MINERAL POINT  MOSUNNY   66  36  32 W17G23    29.82F
MADISON        CLOUDY    65  34  31 SW9       29.79F
MIDDLETON      CLOUDY    66  35  31 W12G21    29.80F
WATERTOWN      CLOUDY    65  37  35 W14       29.79F
MONROE         MOSUNNY   64  36  34 W18G30    29.83F
JANESVILLE     PTSUNNY   70  36  28 W15G21    29.82F
$$

WIZ051-052-058>065-066-070>072-032100-
SOUTHEAST WISCONSIN

CITY           SKY/WX    TMP DP  RH WIND       PRES   REMARKS
MILWAUKEE      PTSUNNY   67  31  26 W15G22    29.80F
WAUKESHA       PTSUNNY   63  34  34 W18       29.81F
MILWAUKEE/TIMM PTSUNNY   66  30  26 W13       29.80F
RACINE         CLOUDY    66  33  29 W13G18    29.82F
BURLINGTON     PTSUNNY   65  35  31 W13G18    29.81F
KENOSHA        PTSUNNY   68  39  34 W16G25    29.81F
FOND DU LAC    CLOUDY    68  35  29 SW18G24   29.75F
SHEBOYGAN      CLOUDY    68  36  30 W15G23    29.75F
WEST BEND      CLOUDY    64  32  29 W12G17    29.78F
JUNEAU         CLOUDY    64  37  35 SW15G23   29.79F
$$

LSZ147-162-032100-
LAKE SUPERIOR

STATION/POSITION TIME  TEMP    WIND        PRES    WAVE
                       AIR SEA DIR/SP/G            HT/PER
                 (UTC) (F)     (DEG/KT/KT) (MB)    (FT/S)
W MID LAKE BUOY  1950   42 37  250/ 14/ 16 1004.2R   2/ 5
DEVILS ISLAND    2000   50     250/ 10/ 12 1004.7F
SAXON HARBOR     1900          360/  9     1006.1R
$$

LMZ867-665-643>646-032100-
LAKE MICHIGAN

STATION/POSITION TIME  TEMP    WIND        PRES    WAVE
                       AIR SEA DIR/SP/G            HT/PER
                 (UTC) (F)     (DEG/KT/KT) (MB)    (FT/S)
CHAMBERS ISLAND  1900   62     200/  5/  9 1005.1
N MID LAKE BUOY  1950   43 39  190/ 17/ 21 1004.6F   3/ 4
NORTHPORT PIER   2000   65     230/  7/ 17 1004.4F
ALGOMA LAKESHORE 1915          260/ 15/ 20   N/A
KEWAUNEE LAKESHO 1900   67     250/ 14/ 18 1006.0F
SHEBOYGAN LAKESH 2000   65     250/ 19/ 22 1007.6F
PORT WASHINGTON  1900   68     270/  7/ 19 1009.5F
S MID LAKE BUOY  1950   45 42  170/ 12/ 14 1010.0F   1
KENOSHA   LAKESH 2000   67     230/  9/ 16 1009.1F
$$

TC  - TEMPERATURE IN CELSIUS
VSB - VISIBILITY IN STATUTE MILES
WCI - WIND CHILL INDEX
HX  - HEAT INDEX





USA.gov is the U.S. government's official web portal to all federal, state and local government web resources and services.